Regional Weather Roundup
Issued by NWS

Home | Current Version | Previous Version | Text Only | Print | Product List | Glossary On
Versions: 1 2 3 4 5 6 7 8 9 10 11 12 13 14 15 16 17 18 19 20 21 22 23 24 25 26 27 28 29 30 31 32 33 34 35 36 37 38 39 40 41 42 43 44 45 46 47 48 49 50
000
ASUS43 KLSX 210159
RWRMO

WEATHER SUMMARY FOR MISSOURI
NATIONAL WEATHER SERVICE SPRINGFIELD MO
800 PM CST SAT DEC 20 2014

NOTE: "FAIR" INDICATES FEW OR NO CLOUDS BELOW 12,000 FEET WITH NO
       SIGNIFICANT WEATHER AND/OR OBSTRUCTIONS TO VISIBILITY.
       CURRENT SKY AND/OR WEATHER CONDITIONS ARE NOT AVAILABLE FOR
       CHILLICOTHE AND FARMINGTON.

MOZ001>031-035>038-043-044-053-054-210300-
...NORTHERN AND WESTERN MISSOURI...

CITY           SKY/WX    TMP DP  RH WIND       PRES   REMARKS
KANSAS CTY INT CLOUDY    38  35  89 S13       30.12S FOG     WCI  30
KANSAS C DTWN  CLEAR     39  33  79 S9        30.14F
LEE`S SUMMIT   CLEAR     38  33  82 S8        30.15S
ST JOSEPH      CLOUDY    43  38  82 S9        30.11S
CHILLICOTHE      N/A     40  36  86 S7        30.17S
KIRKSVILLE     CLOUDY    37  36  96 S9        30.17F FOG

$$
MOZ066>068-077>081-088>096-101>105-210300-
...SOUTHWEST MISSOURI...

CITY           SKY/WX    TMP DP  RH WIND       PRES   REMARKS
SPRINGFIELD    CLOUDY    41  36  82 S7        30.18S
JOPLIN         CLOUDY    43  35  73 S10       30.19R

$$
MOZ032>034-039>042-045>050-055>058-069>072-210300-
...CENTRAL MISSOURI...

CITY           SKY/WX    TMP DP  RH WIND       PRES   REMARKS
COLUMBIA       CLOUDY    40  36  86 S3        30.20S
JEFFERSON CITY CLOUDY    42  35  76 S6        30.22R
ROLLA          CLOUDY    39  34  82 S6        30.19S
SEDALIA        CLOUDY    41  34  76 S8        30.20R
WARRENSBURG    CLOUDY    39  34  81 S7        30.18S
OSAGE BEACH    CLOUDY    41  34  75 S6        30.21R

$$
MOZ051-052-059>065-210300-
...EAST CENTRAL MISSOURI...

CITY           SKY/WX    TMP DP  RH WIND       PRES   REMARKS
ST LOUIS INTL  CLOUDY    42  32  67 SE9       30.25S
SPIRIT OF STL  CLOUDY    41  34  76 SE3       30.24S
ST CHARLES     CLOUDY    39  35  86 E8        30.25S

$$
MOZ072>076-082>087-097>100-106>115-210300-
...SOUTH CENTRAL AND SOUTHEAST MISSOURI...

CITY           SKY/WX    TMP DP  RH WIND       PRES   REMARKS
CAPE GIRARDEAU CLOUDY    41  35  79 CALM      30.28R
FARMINGTON     CLOUDY    39  34  81 CALM      30.26S
POPLAR BLUFF   CLOUDY    42  35  76 CALM      30.26S
WEST PLAINS    CLOUDY    41  35  79 CALM      30.22S

$$



USA.gov is the U.S. government's official web portal to all federal, state and local government web resources and services.